Home   Weather   Sperryville   Past weeks
Flag for USA

Past Weather in Sperryville, Virginia, USA — December 2018

Now
55 °F

Clear.


Feels Like: 55 °F
Forecast: 64 / 37 °F
Wind: No wind

Location: warren County Airport

Current Time: Oct 19, 2019 at 7:12:58 pm

Latest Report: Oct 19, 2019 at 6:35 pm


Visibility: 10 mi

Pressure: 29.98 "Hg

Humidity: 63%

Dew Point: 43 °F

Location of SperryvilleLocation

December 2018 Weather in Sperryville — Graph

°F

High & Low Weather Summary for December 2018

 TemperatureHumidityPressure
High63 °F (Dec 21, 1:10 pm)100% (Dec 1, 12:55 am)30.56 "Hg (Dec 1, 12:55 am)
Low18 °F (Dec 8, 7:15 am)32% (Dec 17, 3:30 pm)29.12 "Hg (Dec 21, 2:50 pm)
Average37 °F79%30.09 "Hg
* Reported Dec 1 12:15 am — Dec 31 11:50 pm, Sperryville. Weather by CustomWeather, © 2019

Note: Actual official high and low records may vary slightly from our data, if they occured in-between our weather recording intervals... More about our weather records

Advertising

Sperryville Weather History for December 1, 2018

Scroll right to see more
 ConditionsComfort  
Time TempWeatherWind HumidityBarometerVisibility
12:15 am
Sat, Dec 1
32 °FClear.N/A93%30.11 "Hg10 mi
12:35 am32 °FClear.N/A93%30.11 "Hg10 mi
12:55 am32 °FClear.N/A100%30.11 "Hg10 mi
1:15 am32 °FClear.N/A93%30.11 "Hg10 mi
1:35 am30 °FClear.N/A100%30.12 "Hg10 mi
1:55 am30 °FClear.N/A93%30.13 "Hg10 mi
2:35 am32 °FOvercast.N/A93%30.14 "Hg10 mi
2:55 am32 °FOvercast.N/A100%30.14 "Hg10 mi
3:15 am32 °FOvercast.N/A100%30.14 "Hg10 mi
3:35 am32 °FOvercast.N/A100%30.14 "Hg10 mi
3:55 am34 °FOvercast.N/A93%30.13 "Hg10 mi
4:15 am34 °FOvercast.N/A93%30.13 "Hg10 mi
4:35 am34 °FOvercast.N/A93%30.13 "Hg10 mi
4:55 am34 °FOvercast.N/A93%30.13 "Hg10 mi
5:15 am34 °FOvercast.N/A93%30.13 "Hg10 mi
5:35 am34 °FOvercast.N/A93%30.14 "Hg10 mi
5:55 am34 °FOvercast.N/A93%30.13 "Hg10 mi
6:15 am36 °FOvercast.N/A87%30.15 "Hg10 mi
6:35 am36 °FOvercast.N/A87%30.14 "Hg10 mi
6:55 am36 °FOvercast.N/A87%30.14 "Hg10 mi
7:15 am36 °FOvercast.N/A87%30.14 "Hg10 mi
7:35 am36 °FOvercast.N/A93%30.14 "Hg10 mi
7:55 am37 °FOvercast.N/A87%30.15 "Hg7 mi
8:35 am37 °FOvercast.N/A93%30.14 "Hg7 mi
8:55 am37 °FOvercast.N/A93%30.15 "Hg7 mi
9:15 am37 °FOvercast.N/A87%30.15 "Hg10 mi
9:35 am37 °FOvercast.N/A87%30.15 "Hg10 mi
9:55 am37 °FOvercast.N/A93%30.16 "Hg10 mi
10:15 am37 °FOvercast.N/A93%30.15 "Hg7 mi
10:35 am37 °FOvercast.N/A93%30.16 "Hg7 mi
10:55 am37 °FOvercast.N/A93%30.15 "Hg4 mi
11:15 am37 °FOvercast.N/A100%30.15 "Hg2 mi
11:35 am37 °FMore clouds than sun.N/A100%30.13 "Hg1 mi
11:55 am37 °FCloudy.N/A100%30.12 "Hg1 mi
12:15 pm37 °FMore clouds than sun.N/A100%30.10 "Hg2 mi
12:35 pm37 °FMore clouds than sun.N/A100%30.10 "Hg7 mi
12:55 pm37 °FOvercast.N/A100%30.09 "Hg7 mi
1:15 pm37 °FOvercast.N/A100%30.09 "Hg5 mi
1:35 pm37 °FOvercast.N/A100%30.08 "Hg5 mi
1:55 pm37 °FMostly cloudy.N/A100%30.06 "Hg4 mi
2:15 pm37 °FMore clouds than sun.N/A100%30.06 "Hg5 mi
2:35 pm37 °FOvercast.N/A100%30.06 "Hg7 mi
2:55 pm37 °FOvercast.N/A100%30.05 "Hg7 mi
3:15 pm37 °FOvercast.N/A100%30.05 "Hg7 mi
3:35 pm37 °FOvercast.N/A100%30.05 "Hg10 mi
3:55 pm37 °FOvercast.N/A100%30.05 "Hg10 mi
4:15 pm37 °FOvercast.N/A100%30.04 "Hg10 mi
4:35 pm37 °FOvercast.N/A100%30.03 "Hg10 mi
4:55 pm37 °FOvercast.N/A100%30.03 "Hg10 mi
5:15 pm37 °FOvercast.N/A100%30.03 "Hg10 mi
5:35 pm37 °FOvercast.N/A100%30.02 "Hg7 mi
5:55 pm37 °FOvercast.N/A100%30.01 "Hg10 mi
6:15 pm37 °FOvercast.N/A100%30.01 "Hg10 mi
6:35 pm37 °FOvercast.N/A100%30.01 "Hg10 mi
6:55 pm37 °FOvercast.N/A100%30.01 "Hg10 mi
7:15 pm37 °FOvercast.N/A100%30.01 "Hg7 mi
7:35 pm37 °FOvercast.N/A100%30.01 "Hg10 mi
7:55 pm37 °FOvercast.N/A100%30.01 "Hg10 mi
8:15 pm37 °FOvercast.N/A100%30.00 "Hg10 mi
8:35 pm37 °FOvercast.N/A100%29.98 "Hg10 mi
8:55 pm37 °FOvercast.N/A100%29.98 "Hg10 mi
9:15 pm37 °FLow clouds.N/A100%29.97 "Hg10 mi
9:35 pm37 °FLow clouds.N/A100%29.95 "Hg7 mi
9:55 pm37 °FMostly cloudy.N/A100%29.94 "Hg7 mi
10:15 pm37 °FLow clouds.N/A100%29.93 "Hg7 mi
10:35 pm37 °FMostly cloudy.N/A100%29.92 "Hg5 mi
10:55 pm37 °FMostly cloudy.N/A100%29.90 "Hg5 mi
11:15 pm37 °FOvercast.N/A100%29.90 "Hg4 mi
11:35 pm37 °FMostly cloudy.N/A100%29.89 "Hg4 mi
11:55 pm37 °FMostly cloudy.N/A100%29.88 "Hg4 mi
Weather by CustomWeather, © 2019

See weather overview